timestamp,surface_pressure_avg,surface_temp_avg,battery_voltage,lat,long
2020-11-01 00:09:01+00:00,330.2764,9.2,12.65,47.84626,-54.09684
2020-11-01 00:19:01+00:00,333.278,9.2,12.65,47.84626,-54.09684
2020-11-01 00:29:01+00:00,327.8363,9.2,12.65,47.84626,-54.09684
2020-11-01 00:39:01+00:00,307.0663,9.14,12.65,47.84626,-54.09684
2020-11-01 00:49:01+00:00,306.493,9.1,12.65,47.84626,-54.09684
2020-11-01 00:59:01+00:00,314.6863,8.8,12.65,47.84626,-54.09684
2020-11-01 01:09:01+00:00,299.1247,8.95,12.65,47.84626,-54.09684
2020-11-01 01:19:01+00:00,278.4864,9.0,12.65,47.84626,-54.09684
2020-11-01 01:29:01+00:00,284.7497,9.0,12.65,47.84626,-54.09684
2020-11-01 01:39:01+00:00,292.9214,9.0,12.65,47.84626,-54.09684
2020-11-01 01:49:01+00:00,282.9731,9.0,12.65,47.84626,-54.09684
2020-11-01 01:59:01+00:00,273.8114,9.0,12.65,47.84626,-54.09684
2020-11-01 02:09:01+00:00,280.6514,9.0,12.65,47.84626,-54.09684
2020-11-01 02:19:01+00:00,275.7764,9.0,12.65,47.84626,-54.09684
2020-11-01 02:29:01+00:00,260.4131,8.98,12.65,47.84626,-54.09684
2020-11-01 02:39:01+00:00,252.7163,8.97,12.65,47.84626,-54.09684
2020-11-01 02:49:01+00:00,254.5364,8.94,12.65,47.84626,-54.09684
2020-11-01 02:59:01+00:00,246.8431,8.95,12.65,47.84626,-54.09684
2020-11-01 03:09:01+00:00,235.593,8.98,12.65,47.84626,-54.09684
2020-11-01 03:19:01+00:00,233.2781,8.99,12.65,47.84626,-54.09684
2020-11-01 03:29:01+00:00,228.423,8.99,12.65,47.84626,-54.09684
2020-11-01 03:39:01+00:00,213.2031,9.0,12.65,47.84626,-54.09684
2020-11-01 03:49:01+00:00,205.7248,9.0,12.65,47.84626,-54.09684
2020-11-01 03:59:01+00:00,208.8881,9.0,12.65,47.84626,-54.09684
2020-11-01 04:09:01+00:00,202.0098,9.0,12.65,47.84626,-54.09684
2020-11-01 04:19:01+00:00,190.9865,9.0,12.65,47.84626,-54.09684
2020-11-01 04:29:01+00:00,188.2032,9.0,12.65,47.84626,-54.09684
2020-11-01 04:39:01+00:00,187.9831,9.0,12.65,47.84626,-54.09684
2020-11-01 04:49:01+00:00,179.1615,9.0,12.65,47.84626,-54.09684
2020-11-01 04:59:01+00:00,172.8499,9.0,12.65,47.84626,-54.09684
2020-11-01 05:09:01+00:00,179.2332,9.0,12.65,47.84626,-54.09684
2020-11-01 05:19:01+00:00,174.4698,9.0,12.65,47.84626,-54.09684
2020-11-01 05:29:01+00:00,165.5381,9.0,12.65,47.84626,-54.09684
2020-11-01 05:39:01+00:00,173.1982,9.0,12.65,47.84626,-54.09684
2020-11-01 05:49:01+00:00,178.6581,9.0,12.65,47.84626,-54.09684
2020-11-01 05:59:01+00:00,171.8231,9.0,12.65,47.84626,-54.09684
2020-11-01 06:09:01+00:00,173.9548,9.0,12.65,47.84626,-54.09684
2020-11-01 06:19:01+00:00,185.6048,9.0,12.65,47.84626,-54.09684
2020-11-01 06:29:01+00:00,182.7281,9.0,12.65,47.84626,-54.09684
2020-11-01 06:39:01+00:00,176.2231,9.0,12.65,47.84626,-54.09684
2020-11-01 06:49:01+00:00,186.0781,9.0,12.65,47.84626,-54.09684
2020-11-01 06:59:01+00:00,196.8931,9.0,12.65,47.84626,-54.09684
2020-11-01 07:09:01+00:00,195.3915,9.0,12.65,47.84626,-54.09684
2020-11-01 07:19:01+00:00,197.6314,8.99,12.57,47.84626,-54.09684
2020-11-01 07:29:01+00:00,211.0515,8.98,12.57,47.84626,-54.09684
2020-11-01 07:39:01+00:00,214.8214,8.95,12.57,47.84626,-54.09684
2020-11-01 07:49:01+00:00,212.6965,8.9,12.57,47.84626,-54.09684
2020-11-01 07:59:01+00:00,222.6948,8.9,12.57,47.84626,-54.09684
2020-11-01 08:09:01+00:00,234.7048,8.9,12.57,47.84626,-54.09684
2020-11-01 08:19:01+00:00,232.8464,8.9,12.57,47.84626,-54.09684
2020-11-01 08:29:01+00:00,229.9481,8.9,12.57,47.84626,-54.09684
2020-11-01 08:39:01+00:00,239.6364,8.88,12.57,47.84626,-54.09684
2020-11-01 08:49:01+00:00,247.2064,8.9,12.57,47.84626,-54.09684
2020-11-01 08:59:01+00:00,247.7098,8.94,12.57,47.84626,-54.09684
2020-11-01 09:09:01+00:00,251.1081,8.9,12.57,47.84626,-54.09684
2020-11-01 09:19:01+00:00,264.14799999999997,8.9,12.57,47.84626,-54.09684
2020-11-01 09:29:01+00:00,269.7131,8.96,12.57,47.84626,-54.09684
2020-11-01 09:39:01+00:00,268.9497,9.0,12.57,47.84626,-54.09684
2020-11-01 09:49:01+00:00,274.6614,9.0,12.57,47.84626,-54.09684
2020-11-01 09:59:01+00:00,283.2297,9.0,12.57,47.84626,-54.09684
2020-11-01 10:09:01+00:00,287.1979,9.0,12.57,47.84626,-54.09684
2020-11-01 10:19:01+00:00,294.638,9.08,12.57,47.84626,-54.09684
2020-11-01 10:29:01+00:00,307.4563,9.09,12.57,47.84626,-54.09684
2020-11-01 10:39:01+00:00,312.6864,9.0,12.57,47.84626,-54.09684
2020-11-01 10:49:01+00:00,314.438,8.9,12.57,47.84626,-54.09684
2020-11-01 10:59:01+00:00,325.618,8.8,12.57,47.84626,-54.09684
2020-11-01 11:09:01+00:00,334.4013,8.7,12.57,47.84626,-54.09684
2020-11-01 11:19:01+00:00,337.6629,8.69,14.16,47.84626,-54.09684
2020-11-01 11:29:01+00:00,343.5196,8.68,14.16,47.84626,-54.09684
2020-11-01 11:39:01+00:00,347.5663,8.61,14.16,47.84626,-54.09684
2020-11-01 11:49:01+00:00,349.1345,8.63,14.16,47.84626,-54.09684
2020-11-01 11:59:01+00:00,350.5662,8.6,14.16,47.84626,-54.09684
2020-11-01 12:09:01+00:00,353.6479,8.6,14.16,47.84626,-54.09684
2020-11-01 12:19:01+00:00,352.8329,8.6,14.8,47.84626,-54.09684
2020-11-01 12:29:01+00:00,346.5596,8.6,14.8,47.84626,-54.09684
2020-11-01 12:39:01+00:00,345.8496,8.6,14.8,47.84626,-54.09684
2020-11-01 12:49:01+00:00,344.1479,8.6,14.8,47.84626,-54.09684
2020-11-01 12:59:01+00:00,342.3229,8.6,14.8,47.84626,-54.09684
2020-11-01 13:09:01+00:00,332.8829,8.63,14.8,47.84626,-54.09684
2020-11-01 13:19:01+00:00,325.7097,8.6,14.8,47.84626,-54.09684
2020-11-01 13:29:01+00:00,325.0229,8.6,14.8,47.84626,-54.09684
2020-11-01 13:39:01+00:00,324.1896,8.62,14.8,47.84626,-54.09684
2020-11-01 13:49:01+00:00,318.3913,8.65,14.8,47.84626,-54.09684
2020-11-01 13:59:01+00:00,314.098,8.7,14.8,47.84626,-54.09684
2020-11-01 14:09:01+00:00,314.9847,8.7,14.8,47.84626,-54.09684
2020-11-01 14:19:01+00:00,311.3413,8.7,14.72,47.84626,-54.09684
2020-11-01 14:29:01+00:00,298.633,8.7,14.72,47.84626,-54.09684
2020-11-01 14:39:01+00:00,292.3497,8.89,14.72,47.84626,-54.09684
2020-11-01 14:49:01+00:00,290.0497,8.9,14.72,47.84626,-54.09684
2020-11-01 14:59:01+00:00,283.8914,8.8,14.72,47.84626,-54.09684
2020-11-01 15:09:01+00:00,270.6714,8.8,14.72,47.84626,-54.09684
2020-11-01 15:19:01+00:00,266.2914,8.8,14.64,47.84626,-54.09684
2020-11-01 15:29:01+00:00,259.6914,8.8,14.64,47.84626,-54.09684
2020-11-01 15:39:01+00:00,250.9464,8.8,14.64,47.84626,-54.09684
2020-11-01 15:49:01+00:00,245.0998,8.8,14.64,47.84626,-54.09684
2020-11-01 15:59:01+00:00,241.1014,8.8,14.64,47.84626,-54.09684
2020-11-01 16:09:01+00:00,230.5531,8.8,14.64,47.84626,-54.09684
2020-11-01 16:19:01+00:00,216.6681,8.79,14.56,47.84626,-54.09684
2020-11-01 16:29:01+00:00,211.9231,8.8,14.56,47.84626,-54.09684
2020-11-01 16:39:01+00:00,206.9831,8.8,14.56,47.84626,-54.09684
2020-11-01 16:49:01+00:00,195.3282,8.8,14.56,47.84626,-54.09684
2020-11-01 16:59:01+00:00,187.4515,8.8,14.56,47.84626,-54.09684
2020-11-01 17:09:01+00:00,189.8098,8.8,14.56,47.84626,-54.09684
2020-11-01 17:19:01+00:00,185.9331,8.8,14.4,47.84626,-54.09684
2020-11-01 17:29:01+00:00,176.5698,8.87,14.4,47.84626,-54.09684
2020-11-01 17:39:01+00:00,176.8631,8.89,14.4,47.84626,-54.09684
2020-11-01 17:49:01+00:00,180.9348,8.9,14.4,47.84626,-54.09684
2020-11-01 17:59:01+00:00,177.0198,8.9,14.4,47.84626,-54.09684
2020-11-01 18:09:01+00:00,174.0631,8.97,14.4,47.84626,-54.09684
2020-11-01 18:19:01+00:00,176.5148,8.97,14.08,47.84626,-54.09684
2020-11-01 18:29:01+00:00,172.4932,8.99,14.08,47.84626,-54.09684
2020-11-01 18:39:01+00:00,168.6465,9.0,14.08,47.84626,-54.09684
2020-11-01 18:49:01+00:00,177.5831,9.0,14.08,47.84626,-54.09684
2020-11-01 18:59:01+00:00,182.6315,9.0,14.08,47.84626,-54.09684
2020-11-01 19:09:01+00:00,182.6915,9.0,14.08,47.84626,-54.09684
2020-11-01 19:19:01+00:00,189.7898,9.0,13.92,47.84626,-54.09684
2020-11-01 19:29:01+00:00,198.3965,9.0,13.92,47.84626,-54.09684
2020-11-01 19:39:01+00:00,201.6948,9.0,13.92,47.84626,-54.09684
2020-11-01 19:49:01+00:00,203.9698,9.0,13.92,47.84626,-54.09684
2020-11-01 19:59:01+00:00,212.7615,9.0,13.92,47.84626,-54.09684
2020-11-01 20:09:01+00:00,221.7165,9.0,13.92,47.84626,-54.09684
2020-11-01 20:19:01+00:00,224.6965,9.0,13.37,47.84626,-54.09684
2020-11-01 20:29:01+00:00,227.4915,9.0,13.37,47.84626,-54.09684
2020-11-01 20:39:01+00:00,233.8264,8.99,13.37,47.84626,-54.09684
2020-11-01 20:49:01+00:00,238.9864,8.97,13.37,47.84626,-54.09684
2020-11-01 20:59:01+00:00,239.9197,8.96,13.37,47.84626,-54.09684
2020-11-01 21:09:01+00:00,243.6414,8.93,13.37,47.84626,-54.09684
2020-11-01 21:19:01+00:00,252.3881,8.9,13.05,47.84626,-54.09684
2020-11-01 21:29:01+00:00,257.8181,8.9,13.05,47.84626,-54.09684
2020-11-01 21:39:01+00:00,260.9664,8.9,13.05,47.84626,-54.09684
2020-11-01 21:49:01+00:00,268.7281,8.9,13.05,47.84626,-54.09684
2020-11-01 21:59:01+00:00,277.118,8.9,13.05,47.84626,-54.09684
2020-11-01 22:09:01+00:00,281.6765,8.9,13.05,47.84626,-54.09684
2020-11-01 22:19:01+00:00,285.8464,8.9,12.73,47.84626,-54.09684
2020-11-01 22:29:01+00:00,292.0647,8.95,12.73,47.84626,-54.09684
2020-11-01 22:39:01+00:00,296.0613,9.0,12.73,47.84626,-54.09684
2020-11-01 22:49:01+00:00,300.028,9.0,12.73,47.84626,-54.09684
2020-11-01 22:59:01+00:00,304.948,9.0,12.73,47.84626,-54.09684
2020-11-01 23:09:01+00:00,312.6697,9.0,12.73,47.84626,-54.09684
2020-11-01 23:19:01+00:00,318.5863,9.0,12.65,47.84626,-54.09684
2020-11-01 23:29:01+00:00,322.973,9.0,12.65,47.84626,-54.09684
2020-11-01 23:39:01+00:00,328.4778,9.0,12.65,47.84626,-54.09684
2020-11-01 23:49:01+00:00,333.6479,8.99,12.65,47.84626,-54.09684
2020-11-01 23:59:01+00:00,333.8280000000001,8.93,12.65,47.84626,-54.09684
